This is the latest recevied weather packets stored in our database for station/object VK4TW-13. If no packets are shown the sender has not sent any weather packets the latest 10 day(s).
| Time | Temp. | Humidity | Pressure | Rain* | Wind** | Luminosity | Snow |
|---|---|---|---|---|---|---|---|
| 1778037756 | 26.11° C | 100% | 1013.9 hPa | 0 mm | - | - | - |
| 1778037155 | 26.11° C | 100% | 1014.1 hPa | 0 mm | - | - | - |
| 1778036555 | 26.11° C | 100% | 1014.2 hPa | 0 mm | - | - | - |
| 1778035953 | 25.56° C | 100% | 1014.3 hPa | 0 mm | - | - | - |
| 1778035725 | 25.56° C | 100% | 1014.2 hPa | 0 mm | - | - | - |
| 1778035456 | 25.56° C | 100% | 1014.4 hPa | 0 mm | - | - | - |
| 1778034853 | 25° C | 100% | 1014.4 hPa | 0 mm | - | - | - |
| 1778034252 | 25° C | 100% | 1014.6 hPa | 0 mm | - | - | - |
| 1778033655 | 25° C | 100% | 1014.9 hPa | 0 mm | - | - | - |
| 1778033473 | 25.56° C | 100% | 1014.8 hPa | 0 mm | - | - | - |
| 1778033287 | 25.56° C | 100% | 1014.9 hPa | 0 mm | - | - | - |
| 1778032691 | 25.56° C | 100% | 1015 hPa | 0 mm | - | - | - |
| 1778032087 | 26.11° C | 100% | 1014.9 hPa | 0 mm | - | - | - |
| 1778031484 | 26.67° C | 100% | 1015.1 hPa | 0 mm | - | - | - |
| 1778031278 | 27.22° C | 100% | 1015 hPa | 0 mm | - | - | - |
| 1778030994 | 27.22° C | 100% | 1015 hPa | 0 mm | - | - | - |
| 1778030811 | 27.78° C | 100% | 1014.9 hPa | 0 mm | - | - | - |
| 1778030357 | 27.78° C | 100% | 1015 hPa | 0 mm | - | - | - |
| 1778030177 | 27.78° C | 100% | 1015 hPa | 0 mm | - | - | - |
| 1778029941 | 28.33° C | 100% | 1015 hPa | 0 mm | - | - | - |
| 1778029341 | 28.33° C | 100% | 1015 hPa | 0 mm | - | - | - |
| 1778028740 | 28.33° C | 100% | 1015.1 hPa | 0 mm | - | - | - |
| 1778028141 | 28.33° C | 100% | 1015.2 hPa | 0 mm | - | - | - |
| 1778027958 | 28.33° C | 100% | 1015.3 hPa | 0 mm | - | - | - |
| 1778027578 | 28.89° C | 100% | 1015.3 hPa | 0 mm | - | - | - |
* Rain since midnight (hover to see other rain measurements)
** Current wind speed in m/s (hover to see current wind gust speed)